[[{"header":{"parameterUnit":"m.s-1","parameterCategory":1,"la1":30.2991,"la2":30.254,"lo1":-89.0895,"lo2":-89.0444,"dy":0.0017,"dx":0.0017,"nx":28,"ny":28,"refTime":"2024-08-08T03:00:00:Z","depth":0,"parameterNumber":2,"parameterNumberName":"U-component_of_WINDS"},"data":[0,0,0,0,0,0,0,0,0,0,0,0,0,0,0,0,0,0,0,0,0,0,0,0,0,0,0,0,0,0,0,0,0,0,0,0,0,0,0,0,0,0,0,0,0,0,0,0,0,0,0,0,0,0,0,0,0,0,3.6242,3.6243,0,3.6351,3.6352,3.6353,3.6282,3.6279,3.6276,3.6273,3.6389,3.6395,3.6401,0,0,0,0,0,0,0,0,0,0,0,0,0,3.598,3.5985,3.6242,3.6243,3.6245,3.635,3.6352,3.6353,3.6283,3.6279,3.6275,3.6271,3.6387,3.6395,3.6402,0,0,0,0,0,0,0,0,0,0,0,0,0,3.6092,3.5986,3.6242,3.6222,3.6221,3.635,3.6352,3.6354,3.6284,3.6279,3.6274,3.6269,3.6385,3.6394,3.6403,3.6559,0,0,3.6431,3.6435,0,0,0,0,0,0,0,0,3.6085,3.6101,3.6224,3.6224,3.6223,3.6298,3.6302,3.6423,3.6285,3.626,3.6273,3.6267,3.6363,3.6374,3.6405,3.6564,3.6569,3.6432,3.6438,3.6442,3.6444,0,0,0,0,0,0,0,3.6078,3.6096,3.6285,3.6226,3.6225,3.621,3.622,3.6325,3.6338,3.6262,3.6257,3.6271,3.6362,3.6397,3.6408,3.6571,3.6432,3.644,3.6446,3.6449,3.6865,3.687,0,0,0,0,0,0,3.6071,3.609,3.6282,3.6288,3.6141,3.6219,3.623,3.6279,3.6337,3.6341,3.6275,3.6267,3.6383,3.6397,3.6411,3.6599,3.6442,3.645,3.6456,3.6859,3.6866,3.6872,0,0,0,0,0,0,3.6065,3.6088,3.6277,3.6188,3.6211,3.6228,3.6284,3.6284,3.6318,3.6346,3.6349,3.6307,3.638,3.6398,3.6523,3.6602,3.6454,3.6463,3.6853,3.6861,3.6869,3.6974,0,0,0,0,0,0,3.6058,3.6087,3.6145,3.619,3.6216,3.6385,3.6288,3.6289,3.6333,3.6324,3.6377,3.6382,3.6377,3.6509,3.6532,3.6612,3.647,3.6846,3.6856,3.6866,3.6963,3.6984,3.7002,0,0,0,0,0,3.6049,3.6171,3.6148,3.6172,3.6288,3.639,3.6405,3.6396,3.634,3.6399,3.6418,3.638,3.6589,3.6522,3.6547,3.6631,3.6841,3.6853,3.6865,3.6954,3.698,3.7002,0,0,0,0,0,0,3.6137,3.6176,3.6152,3.6291,3.6338,3.6378,3.6452,3.6424,3.6488,3.6477,3.6465,3.6478,3.6608,3.6632,3.6557,3.6786,3.6706,3.6724,3.6765,3.679,3.6809,3.6802,3.6478,0,0,0,0,0,3.6172,3.6249,3.628,3.6401,3.6425,3.6435,3.6479,3.6468,3.6516,3.6536,3.6563,3.6613,3.669,3.6741,3.6814,3.6966,3.6978,3.7036,3.7056,3.7072,3.7088,3.7172,3.7199,3.6912,3.6912,3.6912,0,0,3.6247,3.6278,3.6328,3.642,3.6454,3.6536,3.6452,3.6542,3.6604,3.655,3.6669,3.6691,3.6746,3.6885,3.6948,3.6909,3.7169,3.7087,3.71,3.7107,3.7187,3.7214,3.7238,3.6921,3.6919,3.6918,0,0,3.6424,3.6455,3.6559,3.6595,3.6648,3.6654,3.6679,3.6723,3.6736,3.6854,3.6816,3.689,3.7022,3.7063,3.7101,3.7295,3.7264,3.7319,3.7423,3.7505,3.7527,3.7547,3.7618,3.7644,3.7335,3.7335,3.7335,0,3.6511,3.6631,3.6617,3.671,3.6753,3.6706,3.6813,3.6849,3.6924,3.6955,3.691,3.7075,3.7109,3.7258,3.7305,3.7337,3.7367,3.7314,3.7525,3.7545,3.7563,3.7631,3.7657,3.7342,3.7341,3.734,3.734,0,3.6736,3.682,3.6898,3.697,3.7021,3.7121,3.7123,3.7177,3.7162,3.7173,3.7296,3.7334,3.7414,3.7448,3.7435,3.7596,3.757,3.7525,3.7446,3.7597,3.7661,3.7686,3.7351,3.7349,3.7347,3.7345,0,0,3.6973,3.7035,3.7064,3.7096,3.7151,3.7217,3.7315,3.7392,3.7439,3.7492,3.7576,3.7689,3.7648,3.7691,3.7682,3.7754,3.7907,3.77,3.7701,3.7739,3.8089,3.8124,3.8154,3.7886,3.789,3.7894,3.8085,0,3.7155,3.7324,3.7315,3.7475,3.7554,3.7511,3.7597,3.7641,3.7654,3.7724,3.7739,3.782,3.7759,3.7785,3.7854,3.7874,3.7978,3.786,3.7966,3.797,3.7955,3.8187,3.8223,3.8402,3.811,3.8114,3.8117,0,3.739,3.745,3.7618,3.7661,3.7694,3.7771,3.7841,3.7908,3.7958,3.7963,3.8011,3.7991,3.8092,3.8009,3.815,3.807,3.8113,3.8129,3.8136,3.8147,3.8053,3.8206,3.8458,3.8486,3.8155,3.8152,3.815,0,3.7548,3.7671,3.7787,3.7816,3.7869,3.7925,3.795,3.7995,3.8042,3.8103,3.8134,3.8207,3.8248,3.8306,3.8307,3.8245,3.845,3.8366,3.8459,3.8459,3.8505,3.8503,3.877,3.8531,3.853,3.853,3.8529,0,3.7754,3.7859,3.7859,3.7931,3.8047,3.8036,3.8152,3.8172,3.8212,3.8289,3.8256,3.8329,3.8324,3.8399,3.84,3.8518,3.8536,3.8544,3.8544,3.8548,3.8547,3.8577,3.8565,3.8537,3.8535,3.8534,3.8533,0,3.7951,3.7955,3.8079,3.8119,3.8132,3.8216,3.8251,3.8321,3.833,3.8428,3.845,3.8467,3.8553,3.8558,3.8658,3.8659,3.8802,3.8787,3.8785,3.8783,3.8876,3.8868,3.9173,3.9214,3.8946,3.8949,3.8951,0,3.8082,3.8162,3.821,3.8258,3.8286,3.8364,3.8411,3.8403,3.8454,3.8517,3.8579,3.8661,3.8727,3.8867,3.8889,3.8966,3.8954,3.9055,3.8965,3.8967,3.8957,3.8953,3.8962,3.9073,3.9076,3.9079,3.9081,0,3.8316,3.8314,3.8382,3.8452,3.8509,3.8564,3.8615,3.8657,3.8655,3.8715,3.8801,3.8852,3.8953,3.9036,3.9111,3.9139,3.9111,3.9109,3.9134,3.9141,3.9137,3.9142,3.8835,3.9102,3.91,3.9098,3.9097,3.9096,3.8486,3.8555,3.8599,3.8677,3.8714,3.8763,3.883,3.8848,3.8919,3.9,3.8991,3.9088,3.9137,3.9234,3.9268,3.9345,3.931,3.9347,3.9357,3.9367,3.9377,3.9123,3.9358,3.9358,3.9357,3.9356,3.9356,0,3.8719,3.8745,3.8817,3.8889,3.895,3.8916,3.8971,3.9025,3.911,3.9157,3.9222,3.9322,3.9403,3.9431,3.951,3.9566,3.9556,3.9588,3.9584,3.9592,3.9403,3.9373,3.9595,3.9595,3.9595,3.9595,3.9595,3.9595,3.8848,3.8963,3.8967,3.9101,3.9127,3.922,3.9254,3.93,3.9337,3.945,3.9516,3.9533,3.9574,3.9655,3.9728,3.9734,3.9766,3.9804,3.9805,3.9629,3.9605,3.9582,3.9554,3.981,3.9811,3.9988,3.999,3.9991]},{"header":{"parameterUnit":"m.s-1","parameterCategory":1,"la1":30.2991,"la2":30.254,"lo1":-89.0895,"lo2":-89.0444,"dy":0.0017,"dx":0.0017,"nx":28,"ny":28,"refTime":"2024-08-08T03:00:00:Z","depth":0,"parameterNumber":3,"parameterNumberName":"V-component_of_WINDS"},"data":[0,0,0,0,0,0,0,0,0,0,0,0,0,0,0,0,0,0,0,0,0,0,0,0,0,0,0,0,0,0,0,0,0,0,0,0,0,0,0,0,0,0,0,0,0,0,0,0,0,0,0,0,0,0,0,0,0,0,-0.9799,-0.9799,0,-0.9826,-0.9826,-0.9827,-0.9842,-0.9842,-0.9842,-0.9842,-0.9871,-0.9871,-0.9872,0,0,0,0,0,0,0,0,0,0,0,0,0,-0.9759,-0.976,-0.9798,-0.9799,-0.9799,-0.9826,-0.9826,-0.9827,-0.9842,-0.9842,-0.9842,-0.9842,-0.987,-0.9871,-0.9872,0,0,0,0,0,0,0,0,0,0,0,0,0,-0.978,-0.976,-0.9798,-0.981,-0.9811,-0.9826,-0.9826,-0.9827,-0.9842,-0.9842,-0.9842,-0.9842,-0.987,-0.9871,-0.9872,-0.9878,0,0,-0.9876,-0.9876,0,0,0,0,0,0,0,0,-0.9779,-0.9782,-0.9808,-0.9809,-0.9811,-0.9831,-0.9823,-0.9844,-0.9842,-0.983,-0.9842,-0.9842,-0.9857,-0.9859,-0.9864,-0.9879,-0.9881,-0.9876,-0.9876,-0.9877,-0.9877,0,0,0,0,0,0,0,-0.9778,-0.9781,-0.9809,-0.9808,-0.981,-0.9814,-0.9817,-0.9827,-0.9843,-0.9831,-0.9832,-0.9835,-0.9858,-0.9863,-0.9865,-0.9881,-0.9876,-0.9877,-0.9877,-0.9878,-0.9902,-0.9902,0,0,0,0,0,0,-0.9774,-0.9779,-0.9809,-0.981,-0.9795,-0.9814,-0.9818,-0.9824,-0.9843,-0.9846,-0.9835,-0.9836,-0.9861,-0.9864,-0.9866,-0.9874,-0.9877,-0.9878,-0.9878,-0.9902,-0.9902,-0.9902,0,0,0,0,0,0,-0.9773,-0.9777,-0.9807,-0.9795,-0.9799,-0.9815,-0.9822,-0.9825,-0.983,-0.9846,-0.9849,-0.9838,-0.9862,-0.9865,-0.9875,-0.9876,-0.9878,-0.9879,-0.9902,-0.9902,-0.9902,-0.9891,0,0,0,0,0,0,-0.9772,-0.9776,-0.9779,-0.9795,-0.98,-0.9815,-0.9822,-0.9825,-0.9832,-0.9833,-0.9849,-0.9852,-0.9862,-0.9873,-0.9876,-0.9877,-0.988,-0.9902,-0.9902,-0.9902,-0.9891,-0.989,-0.9889,0,0,0,0,0,-0.9771,-0.9774,-0.9779,-0.9782,-0.9803,-0.9815,-0.9818,-0.9829,-0.9832,-0.9834,-0.9845,-0.9852,-0.9875,-0.9874,-0.9877,-0.9879,-0.9902,-0.9902,-0.9902,-0.9891,-0.989,-0.9889,0,0,0,0,0,0,-0.9757,-0.9777,-0.9782,-0.9791,-0.9801,-0.9818,-0.9821,-0.9828,-0.9838,-0.9839,-0.9852,-0.9856,-0.9865,-0.9873,-0.9872,-0.9886,-0.9889,-0.989,-0.988,-0.9879,-0.9878,-0.9876,-0.9881,0,0,0,0,0,-0.9756,-0.9764,-0.978,-0.9786,-0.9792,-0.9805,-0.9811,-0.9819,-0.9831,-0.9835,-0.9846,-0.9858,-0.9868,-0.9874,-0.9884,-0.9892,-0.9896,-0.9895,-0.9894,-0.9893,-0.9894,-0.9899,-0.9899,-0.9902,-0.9902,-0.9902,0,0,-0.9752,-0.9763,-0.9768,-0.9784,-0.9793,-0.9802,-0.9809,-0.9818,-0.9824,-0.9837,-0.9847,-0.9855,-0.9869,-0.9878,-0.9883,-0.9885,-0.9894,-0.9893,-0.9893,-0.9894,-0.9899,-0.9899,-0.9898,-0.9902,-0.9902,-0.9902,0,0,-0.9749,-0.9758,-0.9765,-0.9774,-0.9787,-0.9797,-0.9798,-0.9814,-0.982,-0.9831,-0.984,-0.9848,-0.9865,-0.9874,-0.9881,-0.9882,-0.9889,-0.9885,-0.9881,-0.9886,-0.9886,-0.9886,-0.9886,-0.9886,-0.9886,-0.9885,-0.9885,0,-0.9742,-0.9755,-0.9767,-0.9775,-0.9782,-0.9794,-0.98,-0.9809,-0.9825,-0.983,-0.9832,-0.9854,-0.9864,-0.9875,-0.9875,-0.9881,-0.9883,-0.9883,-0.9885,-0.9885,-0.9885,-0.9886,-0.9886,-0.9885,-0.9885,-0.9885,-0.9885,0,-0.9747,-0.9755,-0.9759,-0.9774,-0.9782,-0.9789,-0.9802,-0.9808,-0.9815,-0.9825,-0.9835,-0.9848,-0.986,-0.9864,-0.9871,-0.9877,-0.9878,-0.9882,-0.9886,-0.9884,-0.9885,-0.9885,-0.9884,-0.9884,-0.9885,-0.9885,0,0,-0.9736,-0.9758,-0.9759,-0.9766,-0.9782,-0.979,-0.9797,-0.981,-0.9815,-0.9826,-0.9833,-0.9847,-0.9852,-0.986,-0.9868,-0.9872,-0.9873,-0.9877,-0.9877,-0.9875,-0.988,-0.9876,-0.9876,-0.9877,-0.9877,-0.9877,-0.9879,0,-0.9736,-0.975,-0.9761,-0.9771,-0.978,-0.9791,-0.9798,-0.9809,-0.9818,-0.9826,-0.9836,-0.9846,-0.9851,-0.9856,-0.9861,-0.9871,-0.9874,-0.9872,-0.9884,-0.9885,-0.988,-0.9877,-0.9873,-0.9874,-0.9879,-0.9879,-0.9879,0,-0.9737,-0.9747,-0.9758,-0.9774,-0.9778,-0.9784,-0.9796,-0.9804,-0.9817,-0.9823,-0.9832,-0.9841,-0.985,-0.9853,-0.9866,-0.9864,-0.987,-0.9876,-0.9877,-0.9878,-0.9882,-0.9878,-0.9874,-0.9874,-0.988,-0.988,-0.988,0,-0.9728,-0.9745,-0.9754,-0.976,-0.9778,-0.9782,-0.979,-0.9802,-0.9809,-0.982,-0.9825,-0.9837,-0.9843,-0.9853,-0.9864,-0.9866,-0.9876,-0.9881,-0.9882,-0.9882,-0.9883,-0.9883,-0.988,-0.9887,-0.9887,-0.9887,-0.9887,0,-0.9726,-0.9732,-0.975,-0.9755,-0.9763,-0.9776,-0.9783,-0.9792,-0.9803,-0.9811,-0.9822,-0.9829,-0.9844,-0.9853,-0.9862,-0.9871,-0.9874,-0.988,-0.9882,-0.9879,-0.9878,-0.9883,-0.9883,-0.9887,-0.9887,-0.9887,-0.9887,0,-0.9717,-0.9729,-0.974,-0.9756,-0.976,-0.9765,-0.978,-0.9786,-0.9795,-0.9805,-0.9808,-0.9823,-0.9834,-0.9846,-0.9862,-0.9868,-0.9877,-0.9881,-0.9873,-0.9874,-0.9875,-0.9874,-0.9874,-0.9875,-0.9882,-0.9882,-0.9882,0,-0.9715,-0.972,-0.9737,-0.9743,-0.9751,-0.976,-0.9767,-0.978,-0.9787,-0.9802,-0.9806,-0.9818,-0.9828,-0.9845,-0.9858,-0.987,-0.9874,-0.9873,-0.9876,-0.9872,-0.9874,-0.9873,-0.9874,-0.9872,-0.9872,-0.9872,-0.9872,0,-0.971,-0.9716,-0.9726,-0.9737,-0.9746,-0.9755,-0.9766,-0.977,-0.9785,-0.9793,-0.9804,-0.9812,-0.9828,-0.9839,-0.9853,-0.9861,-0.9869,-0.9871,-0.9872,-0.9868,-0.9864,-0.9866,-0.9871,-0.9871,-0.9871,-0.9871,-0.9871,-0.9871,-0.9705,-0.971,-0.9723,-0.9733,-0.9743,-0.9752,-0.9758,-0.9769,-0.9778,-0.9792,-0.9799,-0.9811,-0.9824,-0.9843,-0.9851,-0.986,-0.9863,-0.9864,-0.9864,-0.9865,-0.9864,-0.9862,-0.9863,-0.9863,-0.9863,-0.9863,-0.9863,0,-0.9701,-0.9709,-0.9719,-0.9733,-0.9741,-0.9748,-0.976,-0.9766,-0.9776,-0.9787,-0.9797,-0.9811,-0.9822,-0.9836,-0.9848,-0.9853,-0.9857,-0.9856,-0.9856,-0.9858,-0.9861,-0.9859,-0.9853,-0.9853,-0.9853,-0.9853,-0.9853,-0.9853,-0.9699,-0.9708,-0.9716,-0.973,-0.9739,-0.975,-0.9756,-0.9765,-0.9774,-0.9788,-0.9798,-0.9807,-0.9819,-0.9833,-0.9844,-0.9848,-0.9852,-0.985,-0.9854,-0.9857,-0.9858,-0.9858,-0.9856,-0.985,-0.985,-0.9851,-0.9851,-0.9851]}]]